User: anonymous   Login
Location: Unspecified
(0.0000°N, 0.0000°E)
Time: 20:06:39
(UTC+00:00)
Language:

Courier 1B Rocket - Orbit

View from above orbital plane
View from above orbital plane
View from above satellite
View from above satellite

Ground track
Ground track

The orbit data is extracted from the following two-line orbital elements,

1 00059U 60013B   14326.13315284  .00000131  00000-0  57348-4 0  9948
2 00059 028.2473 227.6037 0189457 132.2734 229.4042 13.52906406671413
Epoch (UTC): 22 November 2014 03:11:44
Eccentricity: 0.0189457
inclination: 28.2473°
perigee height: 920 km
apogee height: 1202 km
right ascension of ascending node: 227.6037°
argument of perigee: 132.2734°
revolutions per day: 13.52906406
mean anomaly at epoch: 229.4042°
orbit number at epoch: 67141

The dashed part of the orbit path shows where the satellite is in the earth's shadow,  

DLR